• In Czech Republic
  • List of Countries
  • For 7 days
  • Water Temperature
  • Satellite Maps
  • Weather Map
  • Weather Widgets
  • user-avatar
    Login

    Hourly Weather Solden

    Today, 22 April, Sunday

    Time Temperature Precipitation Wind Pressure Humidity
    00:00 +3°C° 0 mm 1 mps 584 mmHg 82%
    01:00 +4°C° 0 mm 1 mps 584 mmHg 82%
    02:00 +4°C° 0 mm 1 mps 584 mmHg 82%
    03:00 +3°C° 0 mm 1 mps 584 mmHg 82%
    04:00 +3°C° 0 mm 1 mps 583 mmHg 83%
    05:00 +4°C° 0 mm 1 mps 584 mmHg 81%
    06:00 +5°C° 0 mm 1 mps 584 mmHg 79%
    07:00 +6°C° 0 mm 1 mps 585 mmHg 73%
    08:00 +8°C° 0 mm 1 mps 586 mmHg 67%
    09:00 +10°C° 0 mm 1 mps 586 mmHg 61%
    10:00 +12°C° 0 mm 1 mps 587 mmHg 56%
    11:00 +12°C° 0.2 mm 1 mps 587 mmHg 54%
    12:00 +13°C° 0.2 mm 1 mps 587 mmHg 52%
    13:00 +14°C° 0.2 mm 1 mps 588 mmHg 50%
    14:00 +13°C° 0.5 mm 1 mps 587 mmHg 52%
    15:00 +13°C° 0.5 mm 1 mps 587 mmHg 53%
    16:00 +13°C° 0.5 mm 2 mps 586 mmHg 55%
    17:00 +11°C° 0.4 mm 1 mps 586 mmHg 64%
    18:00 +9°C° 0.4 mm 1 mps 585 mmHg 73%
    19:00 +7°C° 0.4 mm 1 mps 584 mmHg 82%
    20:00 +6°C° 0.3 mm 1 mps 584 mmHg 85%
    21:00 +5°C° 0.3 mm 1 mps 584 mmHg 87%
    22:00 +4°C° 0.3 mm 0 mps 584 mmHg 90%
    23:00 +4°C° 0.2 mm 1 mps 584 mmHg 89%

    Tomorrow, 23 April, Monday

    Time Temperature Precipitation Wind Pressure Humidity
    00:00 +4°C° 0.2 mm 1 mps 584 mmHg 89%
    01:00 +4°C° 0.2 mm 1 mps 584 mmHg 89%
    02:00 +4°C° 0.1 mm 1 mps 583 mmHg 89%
    03:00 +4°C° 0.1 mm 1 mps 583 mmHg 88%
    04:00 +3°C° 0.1 mm 1 mps 583 mmHg 88%
    05:00 +4°C° 0.1 mm 1 mps 583 mmHg 85%
    06:00 +5°C° 0.1 mm 1 mps 584 mmHg 83%
    07:00 +6°C° 0.1 mm 1 mps 584 mmHg 80%
    08:00 +8°C° 0.2 mm 1 mps 585 mmHg 72%
    09:00 +10°C° 0.2 mm 1 mps 586 mmHg 65%
    10:00 +12°C° 0.2 mm 1 mps 587 mmHg 58%
    11:00 +12°C° 0.7 mm 1 mps 587 mmHg 57%
    12:00 +12°C° 0.7 mm 1 mps 587 mmHg 56%
    13:00 +13°C° 0.7 mm 2 mps 587 mmHg 56%
    14:00 +12°C° 1.4 mm 2 mps 586 mmHg 61%
    15:00 +10°C° 1.4 mm 2 mps 586 mmHg 67%
    16:00 +9°C° 1.4 mm 2 mps 585 mmHg 72%
    17:00 +9°C° 0.9 mm 1 mps 585 mmHg 77%
    18:00 +8°C° 0.9 mm 1 mps 584 mmHg 81%
    19:00 +6°C° 0.9 mm 1 mps 584 mmHg 86%
    20:00 +6°C° 0.3 mm 1 mps 584 mmHg 87%
    21:00 +5°C° 0.3 mm 1 mps 584 mmHg 87%
    22:00 +5°C° 0.3 mm 1 mps 584 mmHg 88%
    23:00 +4°C° 0 mm 1 mps 584 mmHg 88%

    Day after tomorrow, 24 April, Tuesday

    Time Temperature Precipitation Wind Pressure Humidity
    00:00 +4°C° 0 mm 1 mps 584 mmHg 87%
    01:00 +3°C° 0 mm 1 mps 583 mmHg 87%
    02:00 +3°C° 0 mm 1 mps 583 mmHg 87%
    03:00 +3°C° 0 mm 1 mps 583 mmHg 86%
    04:00 +2°C° 0 mm 1 mps 583 mmHg 86%
    05:00 +3°C° 0 mm 1 mps 584 mmHg 82%
    06:00 +4°C° 0 mm 1 mps 584 mmHg 79%
    07:00 +5°C° 0 mm 1 mps 585 mmHg 75%
    08:00 +7°C° 0 mm 1 mps 586 mmHg 66%
    09:00 +9°C° 0 mm 0 mps 587 mmHg 57%
    10:00 +11°C° 0 mm 0 mps 588 mmHg 49%
    11:00 +12°C° 0 mm 1 mps 588 mmHg 45%
    12:00 +13°C° 0 mm 1 mps 588 mmHg 42%
    13:00 +14°C° 0 mm 1 mps 588 mmHg 39%
    14:00 +14°C° 0.1 mm 1 mps 588 mmHg 41%
    15:00 +13°C° 0.1 mm 1 mps 588 mmHg 43%
    16:00 +13°C° 0.1 mm 1 mps 587 mmHg 44%
    17:00 +11°C° 0.1 mm 1 mps 586 mmHg 55%
    18:00 +9°C° 0.1 mm 1 mps 585 mmHg 67%
    19:00 +7°C° 0.1 mm 1 mps 585 mmHg 78%
    20:00 +6°C° 0 mm 1 mps 584 mmHg 82%
    21:00 +4°C° 0 mm 0 mps 584 mmHg 86%
    22:00 +3°C° 0 mm 0 mps 584 mmHg 90%
    23:00 +3°C° 0 mm 0 mps 584 mmHg 91%

    25 April, Wednesday

    Time Temperature Precipitation Wind Pressure Humidity
    00:00 +4°C° 0 mm 1 mps 584 mmHg 91%
    01:00 +4°C° 0 mm 1 mps 584 mmHg 91%
    02:00 +3°C° 0 mm 1 mps 583 mmHg 91%
    03:00 +3°C° 0 mm 1 mps 583 mmHg 91%
    04:00 +3°C° 0 mm 1 mps 583 mmHg 92%
    05:00 +4°C° 0 mm 1 mps 583 mmHg 88%
    06:00 +5°C° 0 mm 1 mps 584 mmHg 84%
    07:00 +6°C° 0 mm 1 mps 584 mmHg 80%
    08:00 +8°C° 0 mm 1 mps 585 mmHg 72%
    09:00 +10°C° 0 mm 1 mps 586 mmHg 65%
    10:00 +11°C° 0 mm 1 mps 587 mmHg 58%
    11:00 +12°C° 0.2 mm 1 mps 587 mmHg 56%
    12:00 +12°C° 0.2 mm 1 mps 587 mmHg 54%
    13:00 +13°C° 0.2 mm 1 mps 587 mmHg 53%
    14:00 +13°C° 0.5 mm 1 mps 586 mmHg 54%
    15:00 +13°C° 0.5 mm 2 mps 586 mmHg 55%
    16:00 +13°C° 0.5 mm 2 mps 585 mmHg 56%
    17:00 +11°C° 0.4 mm 1 mps 585 mmHg 64%
    18:00 +9°C° 0.4 mm 1 mps 584 mmHg 73%
    19:00 +8°C° 0.4 mm 1 mps 583 mmHg 81%
    20:00 +7°C° 0.1 mm 1 mps 583 mmHg 85%
    21:00 +6°C° 0.1 mm 1 mps 583 mmHg 89%
    22:00 +5°C° 0.1 mm 1 mps 583 mmHg 93%
    23:00 +4°C° 0.1 mm 0 mps 583 mmHg 94%

    26 April, Thursday

    Time Temperature Precipitation Wind Pressure Humidity
    00:00 +4°C° 0.1 mm 0 mps 583 mmHg 94%
    01:00 +4°C° 0.1 mm 0 mps 582 mmHg 95%
    02:00 +3°C° 0 mm 0 mps 582 mmHg 95%
    03:00 +3°C° 0 mm 0 mps 582 mmHg 95%
    04:00 +3°C° 0 mm 0 mps 581 mmHg 95%
    05:00 +4°C° 0.1 mm 0 mps 582 mmHg 92%
    06:00 +4°C° 0.1 mm 0 mps 582 mmHg 90%
    07:00 +5°C° 0.1 mm 0 mps 583 mmHg 87%
    08:00 +7°C° 0.5 mm 1 mps 583 mmHg 83%
    09:00 +8°C° 0.5 mm 1 mps 583 mmHg 79%
    10:00 +9°C° 0.5 mm 1 mps 584 mmHg 75%
    11:00 +9°C° 1 mm 1 mps 584 mmHg 76%
    12:00 +8°C° 1 mm 2 mps 583 mmHg 78%
    13:00 +8°C° 1 mm 2 mps 583 mmHg 80%
    14:00 +7°C° 1.2 mm 2 mps 583 mmHg 81%
    15:00 +7°C° 1.2 mm 2 mps 583 mmHg 82%
    16:00 +7°C° 1.2 mm 2 mps 582 mmHg 83%
    17:00 +6°C° 0.5 mm 2 mps 582 mmHg 86%
    18:00 +5°C° 0.5 mm 2 mps 582 mmHg 88%
    19:00 +4°C° 0.5 mm 2 mps 581 mmHg 90%
    20:00 +3°C° 0.2 mm 2 mps 581 mmHg 91%
    21:00 +3°C° 0.2 mm 2 mps 581 mmHg 91%
    22:00 +2°C° 0.2 mm 2 mps 581 mmHg 92%
    23:00 +3°C° 0.1 mm 1 mps 581 mmHg 92%

    27 April, Friday

    Time Temperature Precipitation Wind Pressure Humidity
    00:00 +2°C° 0.1 mm 1 mps 581 mmHg 92%
    01:00 +2°C° 0.1 mm 1 mps 580 mmHg 92%
    02:00 +2°C° 0 mm 1 mps 580 mmHg 92%
    03:00 +2°C° 0 mm 1 mps 580 mmHg 92%
    04:00 +1°C° 0 mm 1 mps 580 mmHg 91%
    05:00 +2°C° 0.1 mm 1 mps 580 mmHg 89%
    06:00 +3°C° 0.1 mm 1 mps 580 mmHg 87%
    07:00 +4°C° 0.1 mm 1 mps 581 mmHg 86%
    08:00 +5°C° 0.2 mm 1 mps 581 mmHg 81%
    09:00 +5°C° 0.2 mm 2 mps 582 mmHg 77%
    10:00 +6°C° 0.2 mm 2 mps 582 mmHg 73%
    11:00 +7°C° 0.2 mm 2 mps 582 mmHg 73%
    12:00 +7°C° 0.2 mm 2 mps 582 mmHg 72%
    13:00 +7°C° 0.2 mm 2 mps 582 mmHg 72%
    14:00 +7°C° 0.2 mm 2 mps 582 mmHg 72%
    15:00 +7°C° 0.2 mm 2 mps 581 mmHg 73%
    16:00 +7°C° 0.2 mm 2 mps 581 mmHg 73%
    17:00 +6°C° 0.1 mm 2 mps 581 mmHg 78%
    18:00 +5°C° 0.1 mm 2 mps 580 mmHg 84%
    19:00 +4°C° 0.1 mm 2 mps 580 mmHg 89%
    20:00 +4°C° 0 mm 2 mps 580 mmHg 91%
    21:00 +4°C° 0 mm 1 mps 579 mmHg 93%
    22:00 +4°C° 0 mm 1 mps 579 mmHg 96%
    23:00 +3°C° 0.1 mm 1 mps 579 mmHg 95%
    Show more